HOECHSTEN Weather Reports


time (UTC)temp
C
wind
direction
speed
KPH
gust
KPH
rain 1hr
cm
rain 24hr
cm
rain mn
cm
humidity
%
barometer
mb
20260506100213 12 18 3.2 0.0 0.00 0.00 0.00 76 1003.3
20260506093211 11 34 12.9 0.0 0.00 0.00 0.00 76 1003.2
20260506090211 11 56 8.0 0.0 0.00 0.00 0.00 76 1003.5
20260506083211 12 232 8.0 0.0 0.00 0.00 0.00 75 1003.5
20260506080212 11 334 4.8 0.0 0.00 0.00 0.00 75 1003.3
20260506073211 11 235 4.8 0.0 0.00 0.00 0.00 75 1003.4
20260506070212 10 244 6.4 0.0 0.00 0.00 0.00 75 1003.4
20260506060210 10 213 11.3 0.0 0.00 0.00 0.00 74 1003.3
20260506050211 9 233 6.4 0.0 0.00 0.00 0.00 72 1003.6
20260506043211 8 227 11.3 0.0 0.00 0.00 0.00 71 1003.7
20260506040211 8 242 6.4 0.0 0.00 0.00 0.00 69 1004.1
20260506033211 8 248 4.8 0.0 0.00 0.00 0.00 69 1004.4
20260506030212 8 214 12.9 0.0 0.00 0.00 0.00 70 1004.8
20260506023211 8 194 11.3 0.0 0.00 0.00 0.00 72 1004.7
20260506020212 9 217 17.7 0.0 0.00 0.00 0.00 72 1004.9
20260506013211 9 221 16.1 0.0 0.00 0.00 0.00 70 1005.1
20260506010212 9 223 14.5 0.0 0.00 0.00 0.00 67 1005.4
20260506003209 8 209 14.5 0.0 0.00 0.00 0.00 68 1005.7
20260506000211 8 224 9.7 0.0 0.00 0.00 0.00 69 1005.5
20260505233209 9 197 14.5 0.0 0.00 0.00 0.00 70 1005.8
20260505230209 9 196 12.9 0.0 0.00 0.00 0.00 70 1006.0
20260505223210 9 204 12.9 0.0 0.00 0.00 0.00 72 1006.0
20260505213211 9 207 16.1 0.0 0.00 0.00 0.00 74 1006.0
20260505210215 10 258 17.7 0.0 0.00 0.00 0.00 76 1006.2
20260505203209 10 196 17.7 0.0 0.00 0.00 0.00 77 1006.2
20260505200210 10 187 17.7 0.0 0.00 0.00 0.00 77 1005.9
20260505193209 10 238 29.0 0.0 0.00 0.00 0.00 77 1005.7
20260505190215 10 211 32.2 0.0 0.00 0.00 0.00 77 1005.3
20260505183212 11 191 22.5 0.0 0.00 0.00 0.00 78 1004.9
20260505180211 12 199 24.1 0.0 0.00 0.00 0.00 77 1004.7
20260505173210 13 154 25.7 0.0 0.00 0.00 0.00 76 1004.5
20260505170210 13 211 19.3 0.0 0.00 0.00 0.00 73 1004.3
20260505163211 15 238 17.7 0.0 0.00 0.00 0.00 71 1004.1
20260505153210 15 80 4.8 0.0 0.00 0.00 0.00 74 1004.0
20260505150215 14 50 6.4 0.0 0.00 0.00 0.00 75 1003.8
20260505140210 14 9 6.4 0.0 0.00 0.00 0.00 71 1004.1
20260505130210 12 9 12.9 0.0 0.00 0.00 0.00 77 1004.3
20260505123210 12 28 24.1 0.0 0.00 0.00 0.00 76 1004.2
20260505120210 12 346 20.9 0.0 0.00 0.00 0.00 76 1004.3
20260505113210 12 253 6.4 0.0 0.00 0.00 0.00 75 1004.6
20260505110211 12 200 16.1 0.0 0.00 0.00 0.00 77 1004.6